TimeEST,TemperatureF,Dew PointF,Humidity,Sea Level PressureIn,VisibilityMPH,Wind Direction,Wind SpeedMPH,Gust SpeedMPH,PrecipitationIn,Events,Conditions,WindDirDegrees,DateUTC
12:53 AM,1.0,-6.0,72,30.24,10.0,Calm,Calm,-,0.00,,Clear,0,2014-01-22 05:53:00
1:53 AM,1.0,-5.1,75,30.25,10.0,Calm,Calm,-,0.00,,Clear,0,2014-01-22 06:53:00
2:53 AM,-0.0,-6.0,76,30.25,10.0,NW,3.5,-,0.00,,Clear,310,2014-01-22 07:53:00
3:53 AM,1.9,-5.1,72,30.22,10.0,Calm,Calm,-,0.00,,Clear,0,2014-01-22 08:53:00
4:53 AM,-0.9,-7.1,75,30.19,9.0,SE,3.5,-,0.00,Snow,Light Snow,140,2014-01-22 09:53:00
5:53 AM,-2.0,-8.0,76,30.18,9.0,SE,4.6,-,0.00,Snow,Light Snow,130,2014-01-22 10:53:00
6:53 AM,-2.0,-8.0,76,30.19,10.0,SSE,4.6,-,0.00,,Partly Cloudy,150,2014-01-22 11:53:00
7:53 AM,3.0,-2.0,80,30.18,9.0,SSE,5.8,-,0.00,Snow,Light Snow,150,2014-01-22 12:53:00
8:53 AM,5.0,-0.0,80,30.17,9.0,South,6.9,-,0.00,,Overcast,170,2014-01-22 13:53:00
9:53 AM,7.0,1.9,80,30.15,10.0,South,11.5,-,0.00,,Overcast,170,2014-01-22 14:53:00
10:53 AM,8.1,-0.0,70,30.15,10.0,South,15.0,-,N/A,,Overcast,180,2014-01-22 15:53:00
11:53 AM,10.0,-0.0,64,30.14,10.0,South,13.8,-,0.00,,Overcast,190,2014-01-22 16:53:00
12:53 PM,10.9,-0.0,61,30.09,10.0,South,17.3,-,N/A,,Overcast,180,2014-01-22 17:53:00
1:53 PM,12.9,1.9,62,30.06,10.0,SSW,15.0,-,N/A,,Overcast,200,2014-01-22 18:53:00
2:53 PM,12.9,3.9,67,30.04,5.0,South,13.8,-,N/A,,Haze,190,2014-01-22 19:53:00
3:38 PM,14.0,6.1,71,29.98,5.0,SSW,13.8,-,N/A,,Haze,200,2014-01-22 20:38:00
3:53 PM,14.0,6.1,71,30.04,3.0,South,13.8,-,0.00,Snow,Light Snow,190,2014-01-22 20:53:00
4:53 PM,15.1,7.0,70,30.04,2.5,South,15.0,-,0.00,Snow,Light Snow,190,2014-01-22 21:53:00
5:20 PM,15.1,8.1,74,29.99,3.0,SSW,11.5,-,0.00,Snow,Light Snow,200,2014-01-22 22:20:00
5:41 PM,16.0,9.0,74,30.00,2.5,SSW,9.2,-,0.00,Snow,Light Snow,200,2014-01-22 22:41:00
5:53 PM,16.0,9.0,74,30.06,2.5,SSW,9.2,-,0.00,Snow,Light Snow,200,2014-01-22 22:53:00
6:05 PM,16.0,10.0,77,30.01,2.5,SSW,8.1,-,0.00,Snow,Light Snow,200,2014-01-22 23:05:00
6:31 PM,16.0,10.0,77,30.02,2.5,SSW,8.1,-,0.00,Snow,Light Snow,200,2014-01-22 23:31:00
6:53 PM,17.1,10.9,77,30.06,3.0,SSW,10.4,-,0.00,Snow,Light Snow,200,2014-01-22 23:53:00
7:53 PM,17.1,10.9,77,30.05,9.0,South,11.5,-,0.00,,Overcast,190,2014-01-23 00:53:00
8:01 PM,17.1,10.9,77,30.00,5.0,South,13.8,-,0.00,Snow,Light Snow,190,2014-01-23 01:01:00
8:16 PM,17.1,12.0,81,30.00,1.8,SSW,12.7,-,0.00,Snow,Light Snow,210,2014-01-23 01:16:00
8:42 PM,18.0,12.0,78,30.01,2.5,SW,13.8,-,0.00,Snow,Light Snow,220,2014-01-23 01:42:00
8:53 PM,18.0,12.0,78,30.05,2.0,SW,13.8,-,0.00,Snow,Light Snow,220,2014-01-23 01:53:00
9:17 PM,19.0,12.9,77,30.01,3.0,SW,12.7,-,0.00,Snow,Light Snow,230,2014-01-23 02:17:00
9:41 PM,19.9,12.9,74,30.01,2.0,West,20.7,26.5,0.00,Snow,Light Snow,260,2014-01-23 02:41:00
9:44 PM,19.9,12.9,74,30.01,0.8,WNW,28.8,38.0,0.00,Snow,Light Snow,290,2014-01-23 02:44:00
9:51 PM,17.6,10.4,73,30.03,0.2,WNW,28.8,38.0,0.00,Snow,Heavy Snow,300,2014-01-23 02:51:00
9:53 PM,16.0,10.0,77,30.08,0.2,NW,27.6,38.0,0.00,Snow,Heavy Snow,310,2014-01-23 02:53:00
10:00 PM,15.1,8.1,74,30.04,0.8,NW,26.5,34.5,0.00,Snow,Light Snow,310,2014-01-23 03:00:00
10:04 PM,15.1,7.0,70,30.04,1.0,WNW,21.9,32.2,0.00,Snow,Light Snow,300,2014-01-23 03:04:00
10:11 PM,15.1,5.0,64,30.05,2.0,WNW,19.6,33.4,0.00,,Overcast,300,2014-01-23 03:11:00
10:21 PM,15.1,3.9,61,30.06,5.0,WNW,18.4,29.9,0.00,,Haze,300,2014-01-23 03:21:00
10:53 PM,12.9,1.9,62,30.12,5.0,WNW,19.6,27.6,0.00,,Haze,290,2014-01-23 03:53:00
11:53 PM,10.9,-0.9,59,30.15,10.0,WNW,11.5,-,N/A,,Partly Cloudy,290,2014-01-23 04:53:00